Location: Franzen
(48.6167°N, 15.3833°E)
Time: 10:16:30
(UTC+00:00)

Cosmos 1174 - Pass Details

Date: 22 April 2021
Orbit: 370 x 1145 km, 66.1° (Epoch: 16 May)

Event Time Altitude Azimuth Distance (km) Brightness Sun altitude
Rises 21:16:46 0° 324° (NW) 3,102 9.0 -25.0°
Reaches altitude 10° 21:19:24 10° 328° (NNW) 2,042 7.8 -25.2°
Enters shadow 21:23:18 54° 9° (N) 676 4.4 -25.5°
